SCP
0 0 0 0 0 0 0 0 0 0 0 0 0 0 0 0 0 0 0 0 0 0 0 0 0 0 0 0 0 0 0 0 0 0 0 0 0 0 0 0 -0 0 0
0 0 0 0 0 0 0 0 0 0 0 0 0 0 0 0 0 0 0 0 0 0 0 0 0 0 0 0 0 0 0 0 0 0 0 0 0 -0 -0 -0 0 0 0
0 0 0 0 0 0 0 0 0 0 0 0 0 0 0 0 0 0 0 0 0 0 0 0 0 0 0 0 0 0 0 0 0 0 0 0 0 0 0 -0 -0 0 0
0 0 0 0 0 0 0 0 0 0 0 0 0 0 0 0 0 0 0 0 0 0 0 0 0 0 0 0 0 0 0 0 0 0 0 0 0 0 0 0 0 0 0
0 0 0 0 0 0 0 0 0 0 0 0 0 0 0 0 0 0 0 0 0 0 0 0 0 0 0 0 0 0 0 0 0 0 0 0 0 0 0 0 0 0 0
0 0 0 0 0 0 0 0 0 0 0 0 0 0 0 0 0 0 0 0 0 0 0 0 0 0 0 0 0 0 0 0 0 0 0 0 0 0 0 0 0 0 0
0 0 0 0 0 0 0 0 0 0 0 0 0 0 0 0 0 0 0 0 0 0 0 0 0 0 0 0 0 0 0 0 0 0 0 0 0 0 0 0 0 0 0
0 0 0 0 0 0 0 0 0 0 0 0 0 0 0 0 0 0 0 0 0 0 0 0 0 0 0 0 0 0 0 0 0 0 0 0 0 0 0 0 0 0 0
0 0 0 0 0 0 0 0 0 0 0 0 0 0 0 0 0 0 0 0 0 0 0 0 0 0 0 0 0 0 0 0 0 0 0 0 -0 -0 -0 0 0 0 0
0 0 0 0 0 0 0 0 0 0 0 0 0 0 0 0 0 0 0 0 0 0 0 0 0 0 0 0 0 0 0 0 0 0 0 0 0 0 0 0 0 0 0
0 0 0 0 0 0 0 0 0 0 0 0 0 0 0 0 0 0 0 0 0 0 0 0 0 0 0 0 0 0 0 0 0 0 0 0 0 0 0 0 0 0 0
0 0 0 0 0 0 0 0 0 0 0 0 0 0 0 0 0 0 0 0 0 0 0 0 0 0 0 0 0 0 0 0 0 0 0 0 0 0 0 0 0 0 0
0 0 0 0 0 0 0 0 0 0 0 0 0 0 0 0 0 0 0 0 0 0 0 0 0 0 0 0 0 0 0 0 0 0 0 0 0 0 0 0 0 0 0
0 0 0 0 0 0 0 0 0 0 0 0 0 0 0 0 0 0 0 0 0 0 0 0 0 0 0 0 0 0 0 0 0 0 0 0 0 0 0 0 0 0 0
0 0 0 0 0 0 0 0 0 0 0 0 0 0 0 0 0 0 0 0 0 0 0 0 0 0 0 0 0 0 0 0 0 0 0 0 0 0 0 0 0 0 0
0 0 0 0 0 0 0 0 0 0 0 0 0 0 0 0 0 0 0 0 0 0 0 0 0 0 0 0 0 0 0 0 0 0 0 0 0 0 0 0 0 0 0
0 0 0 0 0 0 0 0 0 0 0 0 0 0 0 0 0 0 0 0 0 0 0 0 0 0 0 0 0 0 0 0 0 0 0 0 0 0 0 0 0 0 0
0 0 0 0 0 0 0 0 0 0 0 0 0 0 0 0 0 0 0 0 0 0 0 0 0 0 0 0 0 0 0 0 0 0 0 0 0 0 0 0 0 0 0
0 0 0 0 0 0 0 0 0 0 0 0 0 0 0 0 0 0 0 0 0 0 0 0 0 0 0 0 0 0 0 0 0 0 0 0 0 0 0 0 0 0 0
0 0 0 0 0 0 0 0 0 0 0 0 0 0 0 0 0 0 0 0 0 0 0 0 0 0 0 0 0 0 0 0 0 0 0 0 0 0 0 0 0 -0 0
0 0 0 0 0 0 0 0 0 0 0 0 0 0 0 0 0 0 0 0 0 0 0 0 0 0 0 0 0 0 0 0 0 0 0 0 0 0 0 0 0 0 -0
0 0 0 0 0 0 0 0 0 0 0 0 0 0 0 0 0 0 0 0 0 0 0 0 0 0 0 0 0 0 0 0 0 0 0 0 0 0 0 0 0 0 -0
0 0 0 0 0 0 0 0 0 0 0 0 0 0 0 0 0 0 0 0 0 0 0 0 0 0 0 0 0 0 0 0 0 0 0 0 0 0 0 0 0 0 0
0 0 0 0 0 0 0 0 0 0 0 0 0 0 0 0 0 0 0 0 0 0 0 0 0 0 0 0 0 0 0 0 0 0 0 0 0 0 0 0 0 0 0
0 0 0 0 0 0 0 0 0 0 0 0 0 0 0 0 0 0 0 0 0 0 0 0 0 0 0 0 0 0 0 0 0 0 0 0 0 0 0 0 0 0 0
0 0 0 0 0 0 0 0 0 0 0 0 0 0 0 0 0 0 0 0 0 0 0 0 0 0 0 0 0 0 0 -0 0 0 0 0 0 0 0 0 0 0 0
Wind_Speed_500mb
55 52 47 43 38 31 24 17 11 5 1 6 10 15 19 24 28 31 35 40 46 52 56 60 64 68 72 73 72 70 68 61 73 109 94 95 91 96 97 98 96 92 91
58 53 50 45 39 33 25 18 11 6 5 7 11 17 22 27 31 34 38 45 52 55 59 64 68 72 75 76 76 74 72 69 70 95 107 103 96 90 75 79 92 92 88
61 58 53 48 41 33 26 19 14 9 4 9 15 18 23 28 32 38 44 51 53 57 62 66 70 72 74 75 75 76 77 76 74 79 104 88 91 89 85 78 70 73 75
67 63 58 51 44 35 28 23 16 8 7 12 15 22 28 30 33 40 47 51 53 57 61 64 67 69 71 73 74 73 70 72 73 76 89 90 77 76 70 72 81 72 78
72 67 61 52 44 38 31 24 17 12 13 16 19 24 30 33 35 42 48 51 55 60 62 64 65 66 67 66 61 60 60 64 68 76 79 81 79 83 74 76 73 78 72
77 71 62 57 46 39 33 26 22 22 21 21 22 26 31 34 38 44 50 54 57 62 65 65 64 64 63 61 57 48 47 55 65 71 77 85 85 78 71 77 80 82 88
81 74 68 58 48 37 37 33 30 30 29 27 27 28 34 35 40 45 49 55 60 63 65 65 66 61 59 60 58 56 61 65 58 68 81 85 89 85 83 85 86 90 94
82 78 71 61 46 39 42 40 38 36 35 32 29 31 35 36 41 43 48 53 58 61 62 63 62 63 59 54 60 70 75 78 77 77 84 90 90 91 91 90 85 87 84
85 85 75 63 48 46 51 45 43 39 39 33 32 35 37 38 39 41 48 53 59 62 61 60 58 58 53 49 60 71 79 80 82 76 72 77 78 75 73 73 75 82 88
89 86 73 62 46 51 52 48 45 44 38 36 35 39 39 39 39 43 47 52 57 61 61 60 54 47 46 50 63 72 80 78 69 78 84 81 78 77 63 60 63 70 79
81 80 73 59 51 56 52 50 45 42 40 37 40 43 42 41 40 42 47 49 54 59 61 60 57 46 46 56 54 62 58 63 71 70 69 66 62 59 56 51 48 55 70
77 75 73 51 58 57 53 46 45 43 41 43 45 46 45 43 42 44 47 47 46 51 55 57 53 47 54 51 52 51 50 54 58 62 65 65 65 62 60 59 59 60 62
73 71 62 60 58 54 51 49 46 45 47 48 50 50 48 46 44 45 45 46 47 45 49 46 46 57 55 54 48 48 51 54 58 63 66 67 64 62 61 59 58 59 62
60 60 61 62 60 57 53 49 49 50 51 51 52 52 51 51 49 48 48 48 46 46 45 51 60 61 50 49 48 45 46 49 54 58 63 64 62 62 62 62 67 68 71
53 56 60 61 60 58 55 54 54 53 53 54 54 54 55 56 51 53 52 49 46 45 43 60 58 47 50 49 48 47 49 49 52 56 61 62 63 65 67 70 72 72 71
52 56 58 60 61 62 62 61 60 57 55 55 56 58 57 60 59 54 49 42 38 37 49 57 47 48 49 51 52 51 50 51 52 55 59 59 63 67 74 78 69 66 69
53 53 57 62 66 67 66 64 62 58 57 57 57 58 60 60 60 55 49 40 38 43 52 49 49 48 49 49 50 51 52 49 51 52 56 58 61 68 71 72 71 68 70
61 60 61 62 63 64 65 64 62 60 58 57 56 59 60 60 60 57 43 42 52 52 50 53 52 48 49 50 49 50 49 48 48 49 52 55 57 66 71 71 71 70 71
69 66 62 60 62 63 62 61 59 57 57 59 58 58 58 61 61 58 51 54 57 51 48 51 52 50 48 49 48 48 47 46 46 45 48 51 54 64 66 67 69 69 68
63 63 64 62 61 59 57 56 57 57 58 59 60 58 55 60 60 58 57 58 55 53 50 51 52 53 50 48 47 46 46 42 41 40 43 46 50 58 63 65 66 68 68
55 57 58 57 56 54 53 54 54 56 58 58 58 55 54 59 64 63 58 55 52 52 53 52 52 54 50 47 44 43 42 40 36 36 38 41 45 55 61 63 64 64 65
43 44 44 45 47 49 49 50 52 52 52 54 56 56 52 54 60 64 63 60 55 55 54 54 54 53 48 46 43 42 41 39 35 34 34 37 41 48 56 63 65 64 65
31 32 34 37 40 42 44 44 45 47 50 52 54 56 56 57 58 60 61 58 56 57 54 53 53 53 47 44 42 42 43 39 37 35 35 37 39 44 51 58 64 65 64
26 28 30 32 34 36 39 41 43 45 49 52 53 54 56 58 58 58 57 53 52 53 52 50 51 50 48 44 43 42 43 41 40 37 38 38 38 39 47 50 56 63 61
21 22 24 28 31 34 37 41 42 42 43 43 44 45 45 47 50 51 50 49 48 49 47 46 48 48 48 47 45 44 43 42 42 40 42 44 42 42 43 41 48 53 58
18 21 24 27 28 30 31 32 32 34 36 38 40 43 45 47 48 48 47 47 47 47 47 48 48 48 47 46 43 43 44 43 41 38 43 45 42 38 31 39 41 45 49
Wind_Direction_500mb
185 183 183 183 182 178 173 164 154 147 7 316 319 330 333 335 335 337 337 337 336 334 333 331 330 327 323 321 317 313 309 303 295 303 302 306 304 304 303 301 302 302 300
191 189 190 191 187 184 180 177 176 205 263 313 333 339 335 333 330 333 335 335 334 333 331 328 326 322 319 317 314 311 307 305 301 300 303 305 307 311 312 309 306 304 301
195 196 195 194 191 188 186 189 198 217 278 329 336 337 333 332 330 331 332 332 331 329 327 325 323 319 316 313 311 309 307 305 305 304 302 308 308 310 313 315 315 308 302
200 200 199 197 196 195 196 202 205 222 293 310 322 331 333 329 326 328 327 326 325 324 324 322 320 317 314 313 311 310 311 310 310 307 307 309 311 313 311 308 311 314 311
203 202 200 200 199 201 203 209 217 240 264 281 303 318 326 325 322 322 322 322 323 324 325 322 319 317 315 313 310 308 308 307 310 309 305 305 307 312 310 312 306 314 316
206 204 202 204 204 206 211 217 229 244 254 267 288 305 319 317 317 320 322 324 326 326 324 323 321 320 318 316 312 306 304 306 303 302 306 304 307 311 319 312 308 308 304
209 206 207 208 208 212 223 226 236 244 253 264 279 298 311 310 315 320 324 326 327 327 326 324 324 323 322 319 321 323 320 317 304 302 301 301 304 309 311 307 306 301 300
210 210 210 209 208 219 232 232 241 247 256 264 281 297 304 307 313 317 323 327 328 326 325 324 322 324 328 324 324 319 316 315 317 312 303 303 304 307 303 303 305 303 299
215 213 212 206 219 220 231 236 244 251 256 266 281 292 295 300 307 316 324 328 327 323 322 323 324 325 329 322 315 313 311 306 302 302 297 295 292 292 290 293 293 296 292
219 215 211 211 235 225 231 238 245 249 255 268 280 288 287 297 307 316 323 324 323 321 321 322 326 322 322 318 314 312 307 313 323 311 303 304 302 297 295 288 291 290 290
221 213 211 229 223 226 232 241 245 248 258 269 278 281 284 296 304 311 318 319 318 319 321 320 322 320 319 315 317 308 320 320 309 314 318 318 317 314 310 304 294 286 285
221 214 214 232 224 227 235 242 244 252 261 269 276 277 282 291 298 307 313 314 311 314 316 315 321 324 313 318 321 323 322 319 325 329 331 330 328 325 321 315 310 303 297
218 215 224 221 225 229 236 238 246 256 262 269 275 275 281 289 295 301 305 305 307 308 308 312 303 313 318 320 325 327 328 331 335 336 337 337 334 329 324 323 320 317 310
217 217 219 223 227 231 233 241 250 258 264 270 275 275 280 285 290 295 299 301 304 311 316 313 311 311 311 316 321 327 332 336 337 338 338 338 337 338 337 338 332 329 322
212 219 224 229 234 235 240 248 254 260 264 270 276 275 279 283 288 291 295 300 308 311 309 295 304 308 316 320 323 326 333 337 338 340 340 341 341 341 342 341 333 328 323
219 226 232 237 239 242 246 249 254 258 262 269 273 273 275 281 287 290 289 290 288 294 285 296 304 310 314 317 320 323 328 334 337 338 341 343 342 345 344 336 331 329 323
233 240 242 243 244 246 248 251 254 259 264 269 273 275 277 281 284 286 287 282 285 276 285 297 300 305 309 311 314 318 322 328 333 336 339 341 345 349 335 339 338 336 332
239 242 244 246 248 250 252 254 256 259 264 270 272 275 278 282 283 282 277 278 277 281 288 292 296 300 303 306 309 312 315 321 329 333 338 340 346 347 341 343 343 339 334
245 247 249 248 249 250 251 252 256 261 268 273 275 275 278 279 280 279 279 276 283 285 286 286 290 296 300 302 304 306 310 315 324 330 338 341 349 346 343 345 346 344 340
246 246 248 248 248 249 252 255 258 264 269 273 275 279 280 281 281 281 279 278 281 284 285 286 288 293 297 299 299 302 306 312 318 325 335 343 351 350 346 346 348 348 347
245 246 248 248 248 250 252 257 265 271 275 278 281 285 286 286 285 283 282 282 284 283 285 285 286 289 292 293 294 297 301 308 313 319 329 340 348 350 349 349 348 349 349
243 244 244 245 248 255 262 268 272 277 281 283 286 287 286 279 279 283 285 285 286 283 283 284 284 286 287 287 287 291 296 303 305 311 320 331 340 348 347 349 349 350 350
239 241 245 252 259 263 267 273 278 283 286 289 290 291 291 288 285 284 284 285 284 282 282 282 282 283 283 282 281 284 289 295 299 303 306 315 326 339 341 345 350 349 350
239 247 255 263 271 277 282 285 287 290 292 293 294 295 295 294 293 292 291 289 285 282 282 281 280 281 282 280 278 278 280 287 288 294 294 302 311 324 328 333 344 349 349
251 261 268 272 278 285 290 293 293 294 295 296 297 298 299 298 297 296 294 292 288 285 283 280 279 281 282 281 279 279 279 278 284 285 287 286 298 314 313 321 335 342 347
258 269 277 281 283 284 287 291 294 297 300 304 306 307 306 304 302 300 298 295 292 288 285 282 282 281 281 281 280 278 277 277 279 283 282 284 284 307 317 321 329 338 342
Wind_Speed_850mb
55 52 47 43 38 31 24 17 11 5 1 6 10 15 19 24 28 31 35 40 46 52 56 60 64 68 72 73 72 70 68 61 73 109 94 95 91 96 97 98 96 92 91
58 53 50 45 39 33 25 18 11 6 5 7 11 17 22 27 31 34 38 45 52 55 59 64 68 72 75 76 76 74 72 69 70 95 107 103 96 90 75 79 92 92 88
61 58 53 48 41 33 26 19 14 9 4 9 15 18 23 28 32 38 44 51 53 57 62 66 70 72 74 75 75 76 77 76 74 79 104 88 91 89 85 78 70 73 75
67 63 58 51 44 35 28 23 16 8 7 12 15 22 28 30 33 40 47 51 53 57 61 64 67 69 71 73 74 73 70 72 73 76 89 90 77 76 70 72 81 72 78
72 67 61 52 44 38 31 24 17 12 13 16 19 24 30 33 35 42 48 51 55 60 62 64 65 66 67 66 61 60 60 64 68 76 79 81 79 83 74 76 73 78 72
77 71 62 57 46 39 33 26 22 22 21 21 22 26 31 34 38 44 50 54 57 62 65 65 64 64 63 61 57 48 47 55 65 71 77 85 85 78 71 77 80 82 88
81 74 68 58 48 37 37 33 30 30 29 27 27 28 34 35 40 45 49 55 60 63 65 65 66 61 59 60 58 56 61 65 58 68 81 85 89 85 83 85 86 90 94
82 78 71 61 46 39 42 40 38 36 35 32 29 31 35 36 41 43 48 53 58 61 62 63 62 63 59 54 60 70 75 78 77 77 84 90 90 91 91 90 85 87 84
85 85 75 63 48 46 51 45 43 39 39 33 32 35 37 38 39 41 48 53 59 62 61 60 58 58 53 49 60 71 79 80 82 76 72 77 78 75 73 73 75 82 88
89 86 73 62 46 51 52 48 45 44 38 36 35 39 39 39 39 43 47 52 57 61 61 60 54 47 46 50 63 72 80 78 69 78 84 81 78 77 63 60 63 70 79
81 80 73 59 51 56 52 50 45 42 40 37 40 43 42 41 40 42 47 49 54 59 61 60 57 46 46 56 54 62 58 63 71 70 69 66 62 59 56 51 48 55 70
77 75 73 51 58 57 53 46 45 43 41 43 45 46 45 43 42 44 47 47 46 51 55 57 53 47 54 51 52 51 50 54 58 62 65 65 65 62 60 59 59 60 62
73 71 62 60 58 54 51 49 46 45 47 48 50 50 48 46 44 45 45 46 47 45 49 46 46 57 55 54 48 48 51 54 58 63 66 67 64 62 61 59 58 59 62
60 60 61 62 60 57 53 49 49 50 51 51 52 52 51 51 49 48 48 48 46 46 45 51 60 61 50 49 48 45 46 49 54 58 63 64 62 62 62 62 67 68 71
53 56 60 61 60 58 55 54 54 53 53 54 54 54 55 56 51 53 52 49 46 45 43 60 58 47 50 49 48 47 49 49 52 56 61 62 63 65 67 70 72 72 71
52 56 58 60 61 62 62 61 60 57 55 55 56 58 57 60 59 54 49 42 38 37 49 57 47 48 49 51 52 51 50 51 52 55 59 59 63 67 74 78 69 66 69
53 53 57 62 66 67 66 64 62 58 57 57 57 58 60 60 60 55 49 40 38 43 52 49 49 48 49 49 50 51 52 49 51 52 56 58 61 68 71 72 71 68 70
61 60 61 62 63 64 65 64 62 60 58 57 56 59 60 60 60 57 43 42 52 52 50 53 52 48 49 50 49 50 49 48 48 49 52 55 57 66 71 71 71 70 71
69 66 62 60 62 63 62 61 59 57 57 59 58 58 58 61 61 58 51 54 57 51 48 51 52 50 48 49 48 48 47 46 46 45 48 51 54 64 66 67 69 69 68
63 63 64 62 61 59 57 56 57 57 58 59 60 58 55 60 60 58 57 58 55 53 50 51 52 53 50 48 47 46 46 42 41 40 43 46 50 58 63 65 66 68 68
55 57 58 57 56 54 53 54 54 56 58 58 58 55 54 59 64 63 58 55 52 52 53 52 52 54 50 47 44 43 42 40 36 36 38 41 45 55 61 63 64 64 65
43 44 44 45 47 49 49 50 52 52 52 54 56 56 52 54 60 64 63 60 55 55 54 54 54 53 48 46 43 42 41 39 35 34 34 37 41 48 56 63 65 64 65
31 32 34 37 40 42 44 44 45 47 50 52 54 56 56 57 58 60 61 58 56 57 54 53 53 53 47 44 42 42 43 39 37 35 35 37 39 44 51 58 64 65 64
26 28 30 32 34 36 39 41 43 45 49 52 53 54 56 58 58 58 57 53 52 53 52 50 51 50 48 44 43 42 43 41 40 37 38 38 38 39 47 50 56 63 61
21 22 24 28 31 34 37 41 42 42 43 43 44 45 45 47 50 51 50 49 48 49 47 46 48 48 48 47 45 44 43 42 42 40 42 44 42 42 43 41 48 53 58
18 21 24 27 28 30 31 32 32 34 36 38 40 43 45 47 48 48 47 47 47 47 47 48 48 48 47 46 43 43 44 43 41 38 43 45 42 38 31 39 41 45 49
Wind_Direction_850mb
185 183 183 183 182 178 173 164 154 147 7 316 319 330 333 335 335 337 337 337 336 334 333 331 330 327 323 321 317 313 309 303 295 303 302 306 304 304 303 301 302 302 300
191 189 190 191 187 184 180 177 176 205 263 313 333 339 335 333 330 333 335 335 334 333 331 328 326 322 319 317 314 311 307 305 301 300 303 305 307 311 312 309 306 304 301
195 196 195 194 191 188 186 189 198 217 278 329 336 337 333 332 330 331 332 332 331 329 327 325 323 319 316 313 311 309 307 305 305 304 302 308 308 310 313 315 315 308 302
200 200 199 197 196 195 196 202 205 222 293 310 322 331 333 329 326 328 327 326 325 324 324 322 320 317 314 313 311 310 311 310 310 307 307 309 311 313 311 308 311 314 311
203 202 200 200 199 201 203 209 217 240 264 281 303 318 326 325 322 322 322 322 323 324 325 322 319 317 315 313 310 308 308 307 310 309 305 305 307 312 310 312 306 314 316
206 204 202 204 204 206 211 217 229 244 254 267 288 305 319 317 317 320 322 324 326 326 324 323 321 320 318 316 312 306 304 306 303 302 306 304 307 311 319 312 308 308 304
209 206 207 208 208 212 223 226 236 244 253 264 279 298 311 310 315 320 324 326 327 327 326 324 324 323 322 319 321 323 320 317 304 302 301 301 304 309 311 307 306 301 300
210 210 210 209 208 219 232 232 241 247 256 264 281 297 304 307 313 317 323 327 328 326 325 324 322 324 328 324 324 319 316 315 317 312 303 303 304 307 303 303 305 303 299
215 213 212 206 219 220 231 236 244 251 256 266 281 292 295 300 307 316 324 328 327 323 322 323 324 325 329 322 315 313 311 306 302 302 297 295 292 292 290 293 293 296 292
219 215 211 211 235 225 231 238 245 249 255 268 280 288 287 297 307 316 323 324 323 321 321 322 326 322 322 318 314 312 307 313 323 311 303 304 302 297 295 288 291 290 290
221 213 211 229 223 226 232 241 245 248 258 269 278 281 284 296 304 311 318 319 318 319 321 320 322 320 319 315 317 308 320 320 309 314 318 318 317 314 310 304 294 286 285
221 214 214 232 224 227 235 242 244 252 261 269 276 277 282 291 298 307 313 314 311 314 316 315 321 324 313 318 321 323 322 319 325 329 331 330 328 325 321 315 310 303 297
218 215 224 221 225 229 236 238 246 256 262 269 275 275 281 289 295 301 305 305 307 308 308 312 303 313 318 320 325 327 328 331 335 336 337 337 334 329 324 323 320 317 310
217 217 219 223 227 231 233 241 250 258 264 270 275 275 280 285 290 295 299 301 304 311 316 313 311 311 311 316 321 327 332 336 337 338 338 338 337 338 337 338 332 329 322
212 219 224 229 234 235 240 248 254 260 264 270 276 275 279 283 288 291 295 300 308 311 309 295 304 308 316 320 323 326 333 337 338 340 340 341 341 341 342 341 333 328 323
219 226 232 237 239 242 246 249 254 258 262 269 273 273 275 281 287 290 289 290 288 294 285 296 304 310 314 317 320 323 328 334 337 338 341 343 342 345 344 336 331 329 323
233 240 242 243 244 246 248 251 254 259 264 269 273 275 277 281 284 286 287 282 285 276 285 297 300 305 309 311 314 318 322 328 333 336 339 341 345 349 335 339 338 336 332
239 242 244 246 248 250 252 254 256 259 264 270 272 275 278 282 283 282 277 278 277 281 288 292 296 300 303 306 309 312 315 321 329 333 338 340 346 347 341 343 343 339 334
245 247 249 248 249 250 251 252 256 261 268 273 275 275 278 279 280 279 279 276 283 285 286 286 290 296 300 302 304 306 310 315 324 330 338 341 349 346 343 345 346 344 340
246 246 248 248 248 249 252 255 258 264 269 273 275 279 280 281 281 281 279 278 281 284 285 286 288 293 297 299 299 302 306 312 318 325 335 343 351 350 346 346 348 348 347
245 246 248 248 248 250 252 257 265 271 275 278 281 285 286 286 285 283 282 282 284 283 285 285 286 289 292 293 294 297 301 308 313 319 329 340 348 350 349 349 348 349 349
243 244 244 245 248 255 262 268 272 277 281 283 286 287 286 279 279 283 285 285 286 283 283 284 284 286 287 287 287 291 296 303 305 311 320 331 340 348 347 349 349 350 350
239 241 245 252 259 263 267 273 278 283 286 289 290 291 291 288 285 284 284 285 284 282 282 282 282 283 283 282 281 284 289 295 299 303 306 315 326 339 341 345 350 349 350
239 247 255 263 271 277 282 285 287 290 292 293 294 295 295 294 293 292 291 289 285 282 282 281 280 281 282 280 278 278 280 287 288 294 294 302 311 324 328 333 344 349 349
251 261 268 272 278 285 290 293 293 294 295 296 297 298 299 298 297 296 294 292 288 285 283 280 279 281 282 281 279 279 279 278 284 285 287 286 298 314 313 321 335 342 347
258 269 277 281 283 284 287 291 294 297 300 304 306 307 306 304 302 300 298 295 292 288 285 282 282 281 281 281 280 278 277 277 279 283 282 284 284 307 317 321 329 338 342